| time (UTC) | temp F | wind direction | speed knots | gust knots | rain 1hr in | rain 24hr in | rain mn in | humidity % | barometer mb |
| 20260905110049 | 43 | 88 | 0.0 | 0.0 | 0.00 | 0.00 | 0.00 | 86 | 1018.8 |
| 20260905104501 | 45 | 170 | 0.0 | 0.0 | 0.00 | 0.00 | 0.00 | 85 | 1018.7 |
| 20260905103059 | 46 | 172 | 0.0 | 0.0 | 0.00 | 0.00 | 0.00 | 82 | 1018.7 |
| 20260905101548 | 47 | 172 | 0.0 | 0.0 | 0.00 | 0.00 | 0.00 | 82 | 1018.8 |
| 20260905100106 | 48 | 167 | 0.0 | 1.7 | 0.00 | 0.00 | 0.00 | 80 | 1018.9 |
| 20260905094551 | 48 | 131 | 0.0 | 4.3 | 0.00 | 0.00 | 0.00 | 80 | 1019.0 |
| 20260905093045 | 47 | 247 | 0.9 | 2.6 | 0.00 | 0.00 | 0.00 | 81 | 1018.9 |
| 20260905091600 | 48 | 259 | 0.0 | 1.7 | 0.00 | 0.00 | 0.00 | 80 | 1018.9 |
| 20260905090049 | 49 | 266 | 0.0 | 1.7 | 0.00 | 0.00 | 0.00 | 78 | 1019.0 |
| 20260905084558 | 49 | 268 | 0.0 | 1.7 | 0.00 | 0.00 | 0.00 | 78 | 1019.2 |
| 20260905083100 | 49 | 296 | 0.0 | 1.7 | 0.00 | 0.00 | 0.00 | 78 | 1019.0 |
| 20260905081554 | 48 | 260 | 0.0 | 0.9 | 0.00 | 0.00 | 0.00 | 79 | 1019.2 |
| 20260905080109 | 48 | 232 | 0.0 | 1.7 | 0.00 | 0.00 | 0.00 | 75 | 1019.1 |
| 20260905074600 | 48 | 264 | 0.0 | 0.9 | 0.00 | 0.00 | 0.00 | 76 | 1019.1 |
| 20260905073052 | 49 | 264 | 0.0 | 1.7 | 0.00 | 0.00 | 0.00 | 73 | 1019.3 |
| 20260905071504 | 49 | 308 | 0.0 | 2.6 | 0.00 | 0.00 | 0.00 | 75 | 1019.4 |
| 20260905070057 | 47 | 247 | 0.0 | 0.9 | 0.00 | 0.00 | 0.00 | 77 | 1019.6 |
| 20260905064559 | 46 | 247 | 0.0 | 0.9 | 0.00 | 0.00 | 0.00 | 77 | 1019.6 |
| 20260905063100 | 48 | 246 | 0.0 | 0.9 | 0.00 | 0.00 | 0.00 | 76 | 1019.7 |
| 20260905061558 | 50 | 269 | 0.0 | 1.7 | 0.00 | 0.00 | 0.00 | 74 | 1019.6 |
| 20260905060056 | 50 | 210 | 0.0 | 0.9 | 0.00 | 0.00 | 0.00 | 73 | 1019.6 |
| 20260905054503 | 50 | 355 | 0.0 | 0.9 | 0.00 | 0.00 | 0.00 | 73 | 1019.6 |
| 20260905053107 | 52 | 355 | 0.0 | 0.0 | 0.00 | 0.00 | 0.00 | 70 | 1019.6 |
| 20260905051555 | 54 | 356 | 0.0 | 0.0 | 0.00 | 0.00 | 0.00 | 68 | 1019.4 |
| 20260905050043 | 56 | 355 | 0.0 | 0.0 | 0.00 | 0.00 | 0.00 | 65 | 1019.6 |
| 20260905044605 | 57 | 355 | 0.0 | 0.0 | 0.00 | 0.00 | 0.00 | 63 | 1019.6 |
| 20260905043105 | 59 | 355 | 0.0 | 0.0 | 0.00 | 0.00 | 0.00 | 61 | 1019.7 |
| 20260905041502 | 62 | 355 | 0.0 | 0.0 | 0.00 | 0.00 | 0.00 | 56 | 1019.8 |
| 20260905040055 | 64 | 355 | 0.0 | 0.9 | 0.00 | 0.00 | 0.00 | 53 | 1019.8 |
| 20260905034554 | 66 | 342 | 0.0 | 1.7 | 0.00 | 0.00 | 0.00 | 50 | 1019.9 |
| 20260905033058 | 67 | 255 | 0.9 | 1.7 | 0.00 | 0.00 | 0.00 | 49 | 1019.9 |
| 20260905031554 | 67 | 255 | 0.9 | 4.3 | 0.00 | 0.00 | 0.00 | 49 | 1019.9 |
| 20260905030050 | 69 | 269 | 2.6 | 6.1 | 0.00 | 0.00 | 0.00 | 46 | 1019.8 |
| 20260905024601 | 70 | 243 | 1.7 | 6.1 | 0.00 | 0.00 | 0.00 | 46 | 1019.8 |
| 20260905023054 | 69 | 229 | 2.6 | 5.2 | 0.00 | 0.00 | 0.00 | 47 | 1019.8 |
| 20260905021552 | 69 | 248 | 1.7 | 6.1 | 0.00 | 0.00 | 0.00 | 46 | 1019.9 |
| 20260905020051 | 70 | 167 | 2.6 | 6.1 | 0.00 | 0.00 | 0.00 | 44 | 1020.3 |
| 20260905014558 | 70 | 238 | 1.7 | 6.1 | 0.00 | 0.00 | 0.00 | 45 | 1020.3 |
| 20260905013047 | 69 | 277 | 2.6 | 5.2 | 0.00 | 0.00 | 0.00 | 46 | 1020.5 |
| 20260905011505 | 70 | 245 | 3.5 | 8.7 | 0.00 | 0.00 | 0.00 | 45 | 1020.7 |
| 20260905010056 | 70 | 188 | 2.6 | 6.1 | 0.00 | 0.00 | 0.00 | 45 | 1020.8 |
| 20260905004551 | 70 | 233 | 1.7 | 5.2 | 0.00 | 0.00 | 0.00 | 45 | 1020.9 |
| 20260905003053 | 70 | 214 | 0.9 | 3.5 | 0.00 | 0.00 | 0.00 | 46 | 1021.2 |
| 20260905001610 | 69 | 312 | 0.9 | 6.1 | 0.00 | 0.00 | 0.00 | 47 | 1021.3 |
| 20260905000052 | 68 | 285 | 1.7 | 4.3 | 0.00 | 0.00 | 0.00 | 49 | 1021.5 |
| 20260904234544 | 67 | 252 | 1.7 | 5.2 | 0.00 | 0.00 | 0.00 | 49 | 1021.6 |
| 20260904233107 | 67 | 219 | 2.6 | 5.2 | 0.00 | 0.00 | 0.00 | 47 | 1021.7 |
| 20260904231550 | 67 | 290 | 2.6 | 9.6 | 0.00 | 0.00 | 0.00 | 47 | 1021.9 |
| 20260904230046 | 67 | 282 | 4.3 | 10.4 | 0.00 | 0.00 | 0.00 | 46 | 1022.2 |
| 20260904224501 | 68 | 255 | 3.5 | 5.2 | 0.00 | 0.00 | 0.00 | 46 | 1022.2 |
| 20260904223055 | 66 | 251 | 1.7 | 5.2 | 0.00 | 0.00 | 0.00 | 48 | 1022.3 |
| 20260904221554 | 66 | 295 | 2.6 | 6.1 | 0.00 | 0.00 | 0.00 | 47 | 1022.5 |
| 20260904220108 | 65 | 257 | 1.7 | 5.2 | 0.00 | 0.00 | 0.00 | 46 | 1022.7 |
| 20260904214556 | 64 | 271 | 1.7 | 5.2 | 0.00 | 0.00 | 0.00 | 49 | 1022.8 |
| 20260904213050 | 63 | 149 | 0.9 | 4.3 | 0.00 | 0.00 | 0.00 | 49 | 1022.9 |
| 20260904211504 | 63 | 295 | 0.9 | 3.5 | 0.00 | 0.00 | 0.00 | 50 | 1023.0 |
| 20260904210101 | 62 | 148 | 0.9 | 4.3 | 0.00 | 0.00 | 0.00 | 52 | 1023.2 |
| 20260904204549 | 61 | 105 | 1.7 | 4.3 | 0.00 | 0.00 | 0.00 | 52 | 1023.1 |
| 20260904203100 | 60 | 152 | 0.9 | 4.3 | 0.00 | 0.00 | 0.00 | 54 | 1023.3 |
| 20260904201613 | 59 | 131 | 0.9 | 7.0 | 0.00 | 0.00 | 0.00 | 57 | 1023.5 |
| 20260904200052 | 58 | 278 | 0.9 | 4.3 | 0.00 | 0.00 | 0.00 | 58 | 1023.7 |
| 20260904194647 | 56 | 107 | 0.0 | 3.5 | 0.00 | 0.00 | 0.00 | 62 | 1023.7 |
| 20260904193102 | 56 | 79 | 0.0 | 2.6 | 0.00 | 0.00 | 0.00 | 62 | 1023.7 |
| 20260904191549 | 55 | 131 | 1.7 | 4.3 | 0.00 | 0.00 | 0.00 | 63 | 1023.7 |
| 20260904190046 | 54 | 295 | 2.6 | 4.3 | 0.00 | 0.00 | 0.00 | 63 | 1023.7 |
| 20260904184557 | 52 | 134 | 0.0 | 2.6 | 0.00 | 0.00 | 0.00 | 68 | 1023.8 |
| 20260904183045 | 50 | 178 | 0.0 | 2.6 | 0.00 | 0.00 | 0.00 | 72 | 1023.8 |
| 20260904181510 | 49 | 201 | 0.9 | 3.5 | 0.00 | 0.00 | 0.00 | 73 | 1023.8 |
| 20260904174548 | 48 | 233 | 0.0 | 2.6 | 0.00 | 0.00 | 0.00 | 76 | 1023.8 |
| 20260904173117 | 48 | 252 | 0.0 | 3.5 | 0.00 | 0.00 | 0.00 | 76 | 1023.8 |
| 20260904171600 | 47 | 134 | 0.0 | 1.7 | 0.00 | 0.00 | 0.00 | 77 | 1023.8 |
| 20260904170059 | 47 | 120 | 0.0 | 0.9 | 0.00 | 0.00 | 0.00 | 78 | 1023.7 |
| 20260904164504 | 44 | 86 | 0.0 | 0.0 | 0.00 | 0.00 | 0.00 | 84 | 1023.9 |
| 20260904163053 | 43 | 92 | 0.0 | 1.7 | 0.00 | 0.00 | 0.00 | 85 | 1023.9 |
| 20260904161551 | 43 | 86 | 0.0 | 0.9 | 0.00 | 0.00 | 0.00 | 84 | 1023.9 |
| 20260904160041 | 43 | 93 | 0.9 | 2.6 | 0.00 | 0.00 | 0.00 | 84 | 1024.2 |
| 20260904154557 | 41 | 82 | 0.0 | 1.7 | 0.00 | 0.00 | 0.00 | 87 | 1024.1 |
| 20260904153056 | 39 | 35 | 0.0 | 0.0 | 0.00 | 0.00 | 0.00 | 88 | 1024.1 |
| 20260904151505 | 38 | 36 | 0.0 | 0.9 | 0.00 | 0.00 | 0.00 | 89 | 1024.1 |
| 20260904150055 | 38 | 34 | 0.0 | 0.0 | 0.00 | 0.00 | 0.00 | 88 | 1024.1 |
| 20260904144554 | 38 | 35 | 0.0 | 0.0 | 0.00 | 0.00 | 0.00 | 87 | 1024.1 |
| 20260904143042 | 39 | 85 | 0.0 | 0.9 | 0.00 | 0.00 | 0.00 | 87 | 1024.3 |
| 20260904141602 | 39 | 243 | 0.0 | 0.9 | 0.00 | 0.00 | 0.00 | 86 | 1024.0 |
| 20260904140052 | 38 | 245 | 0.0 | 0.0 | 0.00 | 0.00 | 0.00 | 85 | 1024.6 |
| 20260904134504 | 39 | 245 | 0.0 | 0.0 | 0.00 | 0.00 | 0.00 | 86 | 1024.4 |
| 20260904133055 | 38 | 245 | 0.0 | 0.0 | 0.00 | 0.00 | 0.00 | 85 | 1024.2 |
| 20260904131552 | 39 | 245 | 0.0 | 0.9 | 0.00 | 0.00 | 0.00 | 85 | 1024.1 |
| 20260904130057 | 39 | 244 | 0.0 | 0.0 | 0.00 | 0.00 | 0.00 | 85 | 1024.0 |
| 20260904124658 | 39 | 244 | 0.0 | 0.9 | 0.00 | 0.00 | 0.00 | 86 | 1024.0 |
| 20260904123049 | 39 | 244 | 0.0 | 0.0 | 0.00 | 0.00 | 0.00 | 85 | 1024.0 |
| 20260904121502 | 39 | 245 | 0.0 | 0.0 | 0.00 | 0.00 | 0.00 | 84 | 1023.7 |
| 20260904120057 | 39 | 245 | 0.0 | 0.0 | 0.00 | 0.00 | 0.00 | 84 | 1023.5 |
| 20260904114549 | 39 | 245 | 0.0 | 0.0 | 0.00 | 0.00 | 0.00 | 84 | 1023.4 |
| 20260904113101 | 39 | 245 | 0.0 | 0.0 | 0.00 | 0.00 | 0.00 | 83 | 1023.6 |
| 20260904111610 | 40 | 245 | 0.0 | 0.0 | 0.00 | 0.00 | 0.00 | 85 | 1023.6 |